Content
SEND FEEDBACK

United States of America Flag

BLACK HAWK, SOUTH DAKOTA


Home > North America > United States > South Dakota
Elevation: 3352 feet     Latitude: 44 05N     Longitude: 103 16W

WEATHER
 
SELECT A DAY
Number of Records: 227,369;   Date Range: 1/1/95 - 3/22/16
 
SHARE

PRINT THIS DATA

[ ← Previous Day ]
WEATHER ALMANAC - MAY 26, 2013
[ Next Day → ]
[ °C ]   °F
Weather ElementAverageHighLow
Temperature59.3 °F68.9 °F (3:58 pm)51.8 °F (7:52 am)
Dewpoint57 °F63 °F (3:58 am)51.8 °F (7:52 am)
Humidity92.7 %100 % (2:18 am)71 % (2:58 pm)
Barometer29.91 in30.00 in (7:52 am)29.76 in (1:58 am)
Wind Speed10.3 mph18.4 mph (4:43 am)
Wind Gust24.2 mph (4:43 am)
Weather ElementAverage
Visibility5.7 mi
Wind DirectionE (92.9 °)

Weather ElementTotal
Precipitation0.02 in
Heating Degree Days4.7 (Base 65)
Growing Degree Days10.4 (Base 50)
Averaged from 69 records on May 26, 2013
WEATHER CONDITIONS BREAKOUT
WIND DIRECTION BREAKOUT
WEATHER BY HOUR - MAY 26, 2013
[ °C ]   °F
Local TimeTemperatureDewpointHumidityBarometerVisibilityWind DirectionWind SpeedGust SpeedPrecipitationEventsConditions
1:58 AM61.2 °F59.2 °F93 %29.76 in10.0 miENE (70°)9.2 mphClear
2:18 AM60.8 °F60.8 °F100 %29.82 in10.0 miEast (80°)9.2 mphMostly Cloudy
2:38 AM62.6 °F60.8 °F94 %29.82 in10.0 miEast (80°)8.1 mphOvercast
2:43 AM62.6 °F60.8 °F94 %29.82 in10.0 miEast (80°)8.1 mphOvercast
2:53 AM62.6 °F62.6 °F100 %29.82 in7.0 miEast (90°)9.2 mphOvercast
2:58 AM63.1 °F62.2 °F97 %29.76 in6.0 miEast (90°)9.2 mphOvercast
3:58 AM63.7 °F63.0 °F97 %29.78 in5.0 miEast (100°)10.4 mphOvercast
4:23 AM60.8 °F60.8 °F100 %29.85 in3.0 miEast (100°)15.0 mphOvercast
4:28 AM60.8 °F60.8 °F100 %29.85 in2.5 miEast (90°)15.0 mphOvercast
4:33 AM60.8 °F59.0 °F94 %29.86 in2.0 miEast (100°)16.1 mphOvercast
4:38 AM59.0 °F59.0 °F100 %29.86 in1.5 miEast (100°)15.0 mphOvercast
4:43 AM59.0 °F59.0 °F100 %29.86 in1.2 miEast (80°)18.4 mph24.2 mphOvercast
4:48 AM59.0 °F59.0 °F100 %29.87 in1.0 miEast (90°)17.3 mph24.2 mphMist
4:53 AM59.0 °F57.2 °F94 %29.87 in0.8 miEast (100°)15.0 mph23.0 mphMist
4:58 AM58.3 °F57.7 °F98 %29.81 in0.8 miEast (100°)13.8 mph23.0 mphMist
5:03 AM57.2 °F57.2 °F100 %29.88 in0.5 miEast (90°)15.0 mphFogFog
5:28 AM57.2 °F57.2 °F100 %29.92 in0.5 miEast (80°)12.7 mphFogFog
5:32 AM57.2 °F57.2 °F100 %29.93 in0.2 miENE (60°)12.7 mphFogLight Drizzle
5:37 AM57.2 °F57.2 °F100 %29.93 in0.2 miENE (70°)16.1 mphFog-RainLight Rain
5:58 AM55.8 °F55.4 °F99 %29.89 in0.2 miEast (80°)15.0 mph0.00 inFogLight Drizzle
5:59 AM55.4 °F55.4 °F100 %29.94 in0.2 miEast (80°)12.7 mphFogFog
6:14 AM55.4 °F55.4 °F100 %29.95 in0.2 miENE (70°)17.3 mphFogFog
6:19 AM55.4 °F55.4 °F100 %29.96 in0.5 miENE (70°)16.1 mphFogFog
6:24 AM55.4 °F55.4 °F100 %29.96 in0.5 miENE (70°)13.8 mphFogFog
6:28 AM55.4 °F55.4 °F100 %29.96 in0.8 miEast (80°)12.7 mph21.9 mphLight Drizzle
6:33 AM55.4 °F55.4 °F100 %29.97 in1.0 miNE (50°)11.5 mph21.9 mphLight Drizzle
6:38 AM55.4 °F55.4 °F100 %29.98 in1.8 miNNE (20°)16.1 mph20.7 mphRainLight Rain
6:43 AM53.6 °F53.6 °F100 %29.98 in3.0 miNNE (20°)17.3 mphRainLight Rain
6:53 AM53.6 °F53.6 °F100 %29.99 in8.0 miNNE (20°)13.8 mphRainLight Rain
6:58 AM53.4 °F53.2 °F99 %29.96 in8.0 miNNE (30°)16.1 mph0.00 inRainLight Rain
7:52 AM51.8 °F51.8 °F100 %30.00 in5.0 miNNE (30°)9.2 mphOvercast
7:58 AM52.7 °F52.2 °F98 %29.97 in5.0 miNNE (30°)9.2 mph0.01 inOvercast
8:02 AM53.6 °F51.8 °F94 %30.00 in4.0 miNE (40°)8.1 mphLight Drizzle
8:33 AM53.6 °F51.8 °F94 %30.00 in7.0 miNE (50°)5.8 mphOvercast
8:34 AM53.6 °F51.8 °F94 %30.00 in7.0 miNE (50°)5.8 mphLight Drizzle
8:47 AM53.6 °F51.8 °F94 %30.00 in10.0 miENE (70°)4.6 mphOvercast
8:57 AM53.6 °F51.8 °F94 %30.00 in10.0 miENE (60°)5.8 mphOvercast
8:58 AM53.6 °F51.8 °F94 %29.97 in10.0 miENE (60°)5.8 mph0.01 inOvercast
9:38 AM53.6 °F53.6 °F100 %29.98 in10.0 miSSE (150°)4.6 mphOvercast
9:58 AM54.1 °F53.1 °F96 %29.95 in10.0 miSE (130°)5.8 mphOvercast
10:58 AM54.7 °F53.8 °F97 %29.94 in6.0 miSouth (190°)4.6 mphOvercast
11:58 AM55.2 °F54.1 °F96 %29.94 in7.0 miSW (220°)3.5 mphOvercast
12:58 PM56.7 °F55.6 °F96 %29.92 in9.0 miSouth (180°)3.5 mphOvercast
1:18 PM59.0 °F57.2 °F94 %29.94 in10.0 miSSE (160°)5.8 mphOvercast
1:23 PM59.0 °F57.2 °F94 %29.93 in10.0 miSE (130°)5.8 mphOvercast
1:53 PM62.6 °F59.0 °F88 %29.92 in10.0 miVariable5.8 mphOvercast
1:58 PM63.3 °F58.1 °F83 %29.88 in10.0 miVariable5.8 mphOvercast
2:18 PM66.2 °F57.2 °F73 %29.92 in10.0 miSouth (180°)5.8 mphOvercast
2:23 PM66.2 °F59.0 °F78 %29.92 in10.0 miSouth (170°)5.8 mphOvercast
2:28 PM66.2 °F57.2 °F73 %29.91 in10.0 miSouth (180°)5.8 mphOvercast
2:38 PM66.2 °F59.0 °F78 %29.91 in10.0 miSouth (190°)9.2 mphMostly Cloudy
2:48 PM68.0 °F59.0 °F73 %29.91 in10.0 miSSE (160°)11.5 mphMostly Cloudy
2:58 PM67.6 °F58.1 °F71 %29.88 in10.0 miSSE (160°)8.1 mphScattered Clouds
3:58 PM68.9 °F59.0 °F71 %29.85 in10.0 miENE (70°)8.1 mphClear
4:58 PM68.4 °F58.8 °F71 %29.85 in7.0 miEast (90°)9.2 mphClear
5:38 PM64.4 °F59.0 °F83 %29.88 in5.0 miEast (80°)12.7 mphHaze
5:58 PM63.5 °F58.1 °F83 %29.87 in5.0 miEast (80°)12.7 mphHaze
6:03 PM62.6 °F59.0 °F88 %29.89 in5.0 miEast (90°)11.5 mphHaze
6:18 PM62.6 °F57.2 °F82 %29.89 in5.0 miEast (90°)12.7 mphHaze
6:23 PM62.6 °F57.2 °F82 %29.89 in5.0 miEast (80°)12.7 mphHaze
6:58 PM62.6 °F57.2 °F82 %29.86 in5.0 miEast (100°)12.7 mphHaze
7:33 PM60.8 °F59.0 °F94 %29.89 in5.0 miEast (90°)10.4 mphOvercast
7:42 PM60.8 °F59.0 °F94 %29.89 in5.0 miEast (100°)10.4 mphOvercast
7:58 PM61.3 °F58.1 °F89 %29.88 in5.0 miEast (100°)8.1 mphMostly Cloudy
8:13 PM60.8 °F59.0 °F94 %29.89 in5.0 miESE (110°)8.1 mphOvercast
8:38 PM60.8 °F59.0 °F94 %29.89 in7.0 miSE (140°)8.1 mphOvercast
8:58 PM61.0 °F58.6 °F92 %29.88 in10.0 miSE (130°)5.8 mphOvercast
9:36 PM60.8 °F59.0 °F94 %29.89 in8.0 miESE (110°)5.8 mphOvercast
9:58 PM60.4 °F58.8 °F94 %29.87 in6.0 miESE (120°)8.1 mphOvercast
Hourly data recorded from KRCA, located miles away from Black Hawk, South Dakota




STORIES FROM OUR PARTNERS